GEFSGL_con_prob3kmehi_342.txt.gz
EHI
9 9 10 8 5 4 4 4 3 3 3 3 3 3 4 5 6 6 4 3 2 2 1 1 2 4 5 6 6 5 3 1 0 0 1 2 2 1 0 0 0 0 0
8 8 9 8 6 4 4 3 3 3 3 3 3 4 4 4 5 6 5 3 2 2 2 2 3 4 4 5 6 6 5 3 2 1 2 2 2 1 0 0 0 0 0
8 7 7 7 7 5 4 3 3 3 4 4 4 5 4 4 5 6 6 5 4 3 4 4 4 4 4 5 6 7 7 6 5 4 4 3 3 1 0 0 0 0 0
9 8 7 7 7 7 6 6 5 5 6 6 6 6 5 5 5 5 6 6 5 3 4 4 3 3 3 4 5 6 6 6 4 4 4 3 2 1 0 0 0 0 0
11 9 7 6 6 7 8 8 8 8 8 8 7 5 4 4 4 4 5 5 5 2 2 2 1 1 1 2 3 3 3 3 3 2 2 1 1 0 0 0 0 0 0
12 10 8 7 7 8 8 8 8 7 7 7 7 6 4 4 4 4 5 5 4 2 1 0 0 0 0 1 1 1 1 2 2 2 2 1 1 0 0 0 0 0 0
13 12 10 9 9 8 8 7 5 4 5 5 6 6 6 6 5 3 4 5 4 2 0 0 0 0 0 1 1 1 1 1 1 2 2 2 2 1 0 0 0 0 0
16 15 13 12 11 10 8 6 3 2 3 4 4 5 5 6 4 2 2 4 3 1 0 0 0 0 0 1 2 2 2 2 1 1 1 2 2 1 0 0 0 0 0
16 15 13 13 13 10 8 7 5 4 3 4 4 4 5 5 3 1 1 2 1 0 0 0 0 0 0 0 1 1 1 1 1 0 0 1 1 1 0 0 0 0 0
12 11 11 12 13 11 9 8 7 6 5 5 5 4 4 5 3 1 1 2 1 0 0 0 0 0 0 0 0 0 0 0 0 0 0 0 0 0 0 0 0 0 0
7 7 7 10 13 13 11 9 8 6 6 6 5 3 2 2 2 1 1 1 1 0 0 0 0 0 0 0 0 0 0 0 0 0 0 0 0 0 0 0 0 0 0
5 5 6 8 11 12 11 10 9 7 5 4 4 3 2 1 1 0 0 0 0 0 0 0 0 0 0 0 0 0 0 0 0 0 0 0 0 0 0 0 0 0 1
5 6 6 7 8 10 10 11 11 9 6 4 3 3 3 3 2 1 1 0 0 0 0 0 0 0 0 0 0 0 0 0 0 0 0 0 0 0 0 0 0 0 1
5 5 6 7 6 7 9 11 11 10 7 5 4 3 4 4 3 3 2 1 1 1 0 0 0 0 0 0 0 0 0 0 0 0 0 0 0 0 0 0 0 0 1
3 4 5 6 5 6 7 7 8 7 5 4 3 3 3 3 3 2 2 2 2 1 0 0 1 2 1 1 0 0 0 0 0 0 0 0 0 0 0 0 0 0 0
2 3 5 7 8 8 7 5 4 3 2 1 1 2 2 1 1 1 1 1 1 1 0 0 1 2 2 1 0 0 0 0 0 0 0 0 0 0 0 0 0 0 0
2 3 6 9 10 10 9 7 4 2 2 1 1 1 1 0 0 0 0 0 0 0 0 0 1 1 1 1 0 0 0 0 0 0 0 0 0 0 0 0 0 0 0
3 4 7 9 10 10 10 9 7 6 5 4 2 0 0 0 0 0 0 0 0 0 0 0 0 0 0 0 0 0 0 0 0 0 0 0 0 0 0 0 0 0 0
4 4 5 8 9 10 10 9 9 8 7 5 4 2 1 0 0 0 0 0 0 0 0 0 0 0 0 0 0 0 0 0 0 0 0 0 0 0 0 0 0 0 0
4 3 4 6 8 8 8 8 7 6 5 4 4 4 2 1 0 0 0 0 0 0 0 0 0 0 0 0 0 0 0 0 0 0 0 0 0 0 0 0 0 0 0
3 3 2 3 4 5 4 4 3 3 3 2 2 3 3 1 0 0 0 0 0 0 0 0 0 0 0 0 0 0 0 0 0 0 0 0 0 0 0 0 0 0 0
3 3 2 1 1 1 1 1 0 1 1 1 1 2 1 1 0 0 0 0 0 0 1 1 1 0 0 0 0 0 0 0 0 0 0 0 0 0 0 0 0 0 0
3 3 2 1 0 0 0 0 0 0 0 0 1 1 1 0 0 0 0 0 0 1 2 2 2 1 1 0 0 0 0 0 0 0 1 0 0 1 1 1 1 1 1
3 3 3 1 0 0 0 0 0 0 0 0 0 1 1 1 1 1 0 0 0 1 2 2 2 2 1 0 0 0 0 0 0 0 0 0 0 1 2 2 2 2 2
3 3 3 2 1 0 0 0 0 0 0 0 0 0 1 2 2 1 0 0 0 1 1 1 1 1 1 0 0 1 1 0 0 0 0 0 0 1 1 1 1 2 2
3 3 3 2 1 0 0 0 0 0 0 0 0 1 2 3 2 1 0 0 0 0 0 0 0 0 0 0 1 1 1 0 0 0 1 1 1 0 0 0 0 1 1

GEFSGL_con_prob3kmehi_348.txt.gz
EHI
17 18 19 18 17 16 13 10 9 11 15 19 19 17 14 14 15 14 10 10 12 14 14 13 12 10 8 8 8 8 8 9 9 6 5 5 8 8 5 4 3 2 1
16 17 18 18 18 17 13 10 10 12 16 19 18 17 15 14 16 16 14 12 13 14 14 14 12 10 9 8 8 7 7 8 8 7 5 6 8 8 6 4 3 1 0
14 16 18 19 20 17 14 11 11 15 18 18 19 20 17 15 17 18 16 14 13 14 16 15 13 10 9 9 9 8 8 8 9 9 8 7 7 8 6 4 2 1 0
15 17 20 21 21 19 17 16 15 15 16 18 21 23 20 18 19 20 18 16 15 15 16 15 12 7 6 9 11 10 9 10 11 10 8 7 7 7 5 4 3 2 1
19 21 23 24 23 22 22 21 19 17 17 19 22 23 22 19 19 20 18 17 17 17 16 13 8 3 3 5 8 8 9 10 11 10 7 6 6 5 5 5 5 4 3
24 25 26 26 25 24 24 24 22 21 22 22 21 21 20 16 14 13 13 15 17 17 16 12 6 2 2 2 3 4 5 7 9 8 6 4 3 4 5 6 6 4 4
23 24 25 26 24 24 24 24 24 24 25 24 22 21 18 13 8 5 6 11 15 16 14 11 8 4 3 3 2 1 2 3 5 6 5 3 2 3 5 6 5 4 3
18 20 23 25 25 25 25 25 25 25 25 25 24 23 18 12 5 2 3 9 15 16 14 11 9 6 3 2 2 2 1 1 1 3 2 1 1 2 3 4 4 3 3
18 20 23 25 26 26 27 28 27 27 27 26 25 23 18 11 5 1 3 9 15 17 15 11 7 4 2 1 1 1 1 0 0 1 1 0 1 1 1 3 3 3 2
20 22 24 25 26 26 26 28 28 28 26 25 25 23 18 13 7 2 3 8 13 15 15 12 6 2 1 0 0 0 0 0 1 1 0 0 0 0 1 3 3 2 1
20 22 22 22 23 23 24 24 25 26 25 23 23 21 17 14 8 3 2 5 9 12 14 12 7 2 0 0 0 0 0 0 1 2 1 1 1 2 3 4 3 3 2
18 20 21 19 18 19 20 21 22 22 21 20 19 16 14 12 8 3 1 3 6 10 12 10 6 2 0 0 0 0 0 0 1 2 3 2 2 3 5 5 4 3 2
19 20 21 19 16 16 18 18 18 17 16 15 14 13 13 13 10 5 2 1 3 6 8 6 3 1 0 0 0 0 0 1 1 3 3 3 3 4 4 5 4 3 2
19 20 20 18 16 15 17 16 15 14 13 13 13 13 14 15 13 9 6 4 4 4 5 4 2 1 1 1 1 1 1 2 3 3 3 3 3 3 3 4 3 2 1
18 18 17 15 13 14 15 15 14 13 12 11 12 13 14 13 11 9 8 7 5 4 4 4 3 3 2 2 2 2 3 3 3 3 3 3 3 3 3 3 3 3 2
18 16 13 13 13 13 14 14 13 12 9 7 7 9 9 7 4 3 4 4 3 2 3 5 6 5 4 3 4 4 5 4 4 3 3 3 3 3 3 3 3 3 3
15 12 11 12 13 13 13 13 12 9 6 4 3 3 3 1 0 0 0 0 0 0 2 6 8 6 4 3 5 7 8 7 6 4 3 3 3 2 2 3 4 3 3
11 9 9 11 12 13 13 12 11 9 8 6 4 2 0 0 0 0 0 0 1 2 4 6 7 6 4 4 5 8 9 8 7 5 3 3 3 3 3 3 4 3 3
9 8 7 8 9 11 11 11 11 11 11 11 9 6 2 0 0 0 0 1 2 4 6 7 6 5 4 4 5 6 8 8 7 5 4 3 3 3 3 4 3 3 3
9 8 6 6 6 8 9 10 10 11 12 12 12 9 3 1 0 0 0 1 3 5 7 7 7 6 6 5 5 6 6 5 5 5 4 3 3 3 4 4 4 3 2
8 7 6 6 6 7 8 9 10 10 10 10 10 8 3 2 1 1 1 1 2 5 6 7 7 7 7 7 7 6 5 4 4 5 5 4 3 3 3 4 4 3 3
7 7 6 6 6 6 7 8 8 7 7 8 8 5 3 2 3 2 2 1 2 4 6 6 7 8 8 6 5 5 4 3 3 5 6 5 4 4 4 3 3 3 3
5 6 6 6 6 5 4 5 5 4 4 5 5 4 4 4 4 3 3 2 1 3 5 6 6 6 6 4 2 2 2 2 3 5 6 6 6 5 5 4 3 3 3
3 4 4 4 4 4 3 3 3 3 3 3 4 4 4 4 3 2 2 1 0 1 3 5 4 4 2 1 0 0 0 0 1 3 5 5 5 5 4 3 3 3 3
1 1 1 1 2 2 3 3 3 3 3 3 3 3 3 2 1 1 1 0 0 0 1 3 3 2 1 0 0 0 0 0 0 1 2 2 3 3 3 3 3 3 3
0 0 0 0 0 1 2 3 3 3 3 3 3 3 2 1 0 0 0 0 0 0 1 2 2 1 0 0 0 0 0 0 0 0 0 0 1 2 2 2 2 3 3

GEFSGL_con_prob3kmehi_354.txt.gz
EHI
45 45 45 43 41 37 34 35 37 35 33 35 37 34 30 27 28 28 25 23 24 23 19 19 20 19 17 17 17 18 17 15 12 9 7 7 8 8 8 5 3 2 1
42 42 42 43 41 37 36 37 38 37 33 33 34 32 28 26 26 26 25 24 23 22 20 20 20 18 17 17 17 17 16 15 12 9 7 7 7 8 8 5 2 1 0
39 37 37 39 40 38 36 38 38 35 33 30 29 28 28 26 25 25 27 26 24 23 22 22 21 21 20 19 18 16 15 13 12 10 8 6 6 7 7 4 1 0 0
40 38 36 37 39 38 37 37 36 33 30 27 24 26 27 26 24 26 28 29 28 26 24 23 22 22 21 19 17 16 15 13 13 11 9 6 5 6 6 3 1 0 0
44 43 40 37 38 39 38 36 34 32 27 24 24 24 24 23 21 21 24 27 29 28 26 23 20 18 17 15 14 14 13 13 14 13 10 7 6 6 6 5 2 1 1
45 42 38 35 34 35 34 31 30 28 26 26 26 24 21 19 15 13 15 21 26 29 29 25 19 14 13 11 10 9 8 9 11 12 11 8 7 7 8 8 6 4 3
41 38 34 30 27 27 27 27 28 27 27 29 30 27 23 18 12 7 9 16 24 29 30 28 21 15 13 12 9 5 3 4 7 9 8 7 5 5 7 8 7 6 5
37 34 30 27 25 24 25 27 28 27 27 30 30 29 27 21 12 6 7 14 23 27 27 26 24 18 13 13 11 5 2 3 4 5 5 4 2 2 3 5 5 5 5
31 29 26 25 27 28 28 28 28 26 25 25 26 27 27 21 12 6 7 14 22 23 21 19 19 16 11 9 9 6 4 3 3 3 3 1 0 0 1 2 3 3 4
25 25 23 25 28 29 29 28 26 24 22 22 23 24 23 19 11 4 6 13 19 20 17 13 10 9 7 5 6 6 4 4 3 2 1 1 1 1 1 1 1 3 3
25 25 25 26 28 28 29 27 24 23 22 23 23 22 19 16 10 4 4 11 16 17 15 11 7 5 3 2 4 5 4 3 3 2 1 1 3 3 1 0 1 2 3
30 29 28 27 26 26 27 26 25 24 23 23 22 19 16 13 9 4 3 6 10 12 12 10 6 3 1 1 2 3 2 1 1 2 1 1 3 3 2 1 1 2 3
33 30 27 25 23 23 24 25 24 22 21 21 19 16 13 10 8 5 3 2 4 6 8 8 4 1 0 0 1 1 0 0 0 0 1 1 1 1 1 1 2 3 3
30 28 26 23 20 19 20 20 18 16 16 16 14 11 10 9 8 6 4 3 3 3 5 5 3 1 1 1 1 1 1 0 0 0 0 0 0 0 1 3 4 4 4
26 25 24 21 17 15 14 14 11 9 8 9 8 7 8 8 7 5 5 6 6 4 3 4 4 4 3 4 5 4 3 1 1 0 1 1 1 1 2 4 5 4 4
22 22 20 17 14 12 11 10 7 4 2 2 3 5 7 7 5 3 4 5 6 4 3 5 6 7 7 8 8 7 6 4 3 2 2 2 2 3 4 5 4 3 3
20 20 17 14 13 11 10 9 8 5 3 2 2 3 4 3 2 1 1 2 2 3 5 6 7 9 10 11 11 10 8 7 7 5 4 3 3 4 6 6 5 4 2
19 19 16 13 12 11 10 10 10 9 8 5 2 1 1 1 0 0 0 0 1 3 6 6 6 8 10 12 12 11 9 8 8 7 6 4 4 5 6 7 6 5 4
17 16 15 13 11 10 9 8 9 8 8 6 3 1 0 0 0 0 0 1 3 4 4 4 3 4 7 9 10 10 9 8 9 8 7 5 5 5 6 6 6 5 4
15 13 11 11 11 10 7 6 5 5 5 6 5 2 0 0 0 0 1 2 3 3 2 1 1 2 3 6 8 9 8 8 8 8 6 4 4 5 6 5 4 4 4
11 10 8 8 9 9 7 5 5 5 5 6 6 4 1 0 0 1 2 2 3 3 1 1 1 0 1 3 6 8 7 7 7 6 5 4 4 5 5 4 4 4 4
10 9 8 7 6 6 6 6 6 5 5 5 5 3 0 0 0 1 1 2 2 2 2 2 2 1 2 4 5 6 6 6 6 6 5 5 6 5 5 5 5 5 4
9 8 8 8 7 6 6 6 6 5 4 5 5 2 1 1 1 0 0 1 1 1 1 2 3 3 4 5 5 5 4 5 6 5 5 5 6 5 5 5 5 4 3
7 5 5 7 8 7 7 6 6 5 5 4 4 3 3 4 3 1 0 1 1 0 0 1 2 3 5 5 4 3 2 3 4 4 4 3 3 3 3 3 3 2 1
3 2 2 3 5 6 5 5 6 5 5 4 4 4 4 5 4 2 1 1 2 1 1 1 2 3 3 4 2 1 0 1 1 2 2 2 1 1 1 1 1 0 0
1 1 1 2 3 3 3 5 5 5 4 4 3 4 5 5 4 2 1 1 2 2 2 2 3 3 3 3 1 0 0 0 0 0 1 1 1 0 0 0 0 0 0

GEFSGL_con_prob3kmehi_360.txt.gz
EHI
22 20 19 17 16 17 16 13 10 8 8 6 4 3 4 6 6 6 5 5 5 6 7 6 5 5 5 4 3 3 4 4 3 3 3 1 0 0 0 0 0 0 0
19 19 18 17 16 16 15 13 11 10 9 8 5 4 5 6 8 7 7 6 5 4 5 5 5 5 4 3 4 5 5 4 3 3 3 2 1 0 0 0 0 0 0
15 16 16 15 14 14 12 10 10 10 10 8 7 6 6 7 9 10 8 6 5 4 3 3 4 4 3 3 4 6 6 5 4 3 3 2 1 0 0 0 0 0 0
12 13 13 12 11 9 7 7 7 8 8 7 7 7 7 8 10 11 8 5 4 4 3 3 3 2 2 2 4 6 6 6 4 4 3 2 1 0 0 0 0 0 0
10 10 10 10 8 6 4 5 6 6 5 4 4 6 8 9 10 9 7 6 5 3 2 2 2 1 0 2 4 5 5 5 4 3 1 1 0 0 0 0 0 0 0
9 8 8 9 8 5 4 6 5 4 3 3 4 6 8 9 8 6 6 6 5 3 1 1 2 2 2 2 2 2 3 3 2 1 0 0 0 0 0 0 0 0 0
11 10 9 9 7 5 5 5 4 3 4 5 6 6 7 7 6 3 3 5 4 2 1 1 2 4 5 4 2 1 2 2 1 0 0 0 0 0 0 0 0 0 0
14 14 13 11 8 5 5 4 3 3 4 5 5 5 5 6 4 1 1 2 2 1 1 2 3 4 5 5 4 3 3 2 1 0 0 0 0 0 0 0 0 0 0
15 15 14 12 9 6 4 5 5 5 4 3 3 3 3 3 2 1 0 0 0 0 1 2 3 3 4 4 5 5 4 3 1 0 0 0 0 0 0 0 0 0 0
11 12 13 13 12 10 9 8 8 7 6 4 3 3 3 2 1 0 0 0 0 0 0 1 1 2 2 3 5 6 6 4 2 1 0 0 0 0 0 0 0 0 0
8 9 11 13 14 14 14 12 9 8 8 6 5 6 6 4 3 1 0 0 0 0 0 0 0 1 1 1 3 4 5 4 3 2 1 0 0 0 0 0 0 0 0
7 8 9 11 13 14 14 12 8 7 6 6 6 7 7 6 4 2 0 0 0 0 0 0 0 0 0 0 1 1 2 2 2 2 1 0 0 0 0 0 0 0 0
7 8 10 10 10 11 12 10 8 6 5 5 5 6 6 4 3 2 1 0 0 0 0 0 1 0 0 0 0 0 0 0 1 2 2 1 0 0 0 0 0 0 0
6 7 9 8 8 8 9 9 7 6 5 5 5 6 5 3 2 2 2 1 1 1 0 0 0 0 0 0 0 0 0 0 0 1 1 1 0 0 0 0 0 0 0
4 5 6 6 6 7 7 6 4 3 3 4 5 5 5 3 2 2 2 2 2 1 0 0 0 0 0 0 0 0 0 0 0 0 0 0 0 0 0 0 0 0 0
4 3 3 4 5 6 6 4 2 1 1 1 2 3 3 3 2 1 1 1 1 1 0 0 0 0 0 0 0 0 0 0 0 1 1 0 0 0 0 0 0 0 0
5 4 2 3 5 6 6 4 1 0 0 0 0 1 1 1 1 0 0 0 0 0 0 0 0 0 0 0 0 0 0 0 0 1 2 1 0 0 0 0 0 0 0
7 4 3 3 5 6 6 4 1 0 0 0 0 0 0 0 0 0 0 0 0 0 0 0 0 0 0 0 0 0 0 0 0 1 1 1 0 0 0 0 0 0 0
8 5 4 4 5 5 5 4 1 0 0 0 0 0 0 0 0 0 0 0 0 0 0 0 0 0 0 0 0 0 0 0 0 0 0 0 0 1 1 1 1 0 1
9 6 4 5 5 4 4 3 2 1 0 0 0 0 0 0 0 0 0 0 0 0 0 0 0 0 0 0 0 0 0 0 0 0 0 0 0 1 2 2 2 2 2
10 8 6 5 4 3 3 3 3 2 1 0 1 0 0 0 0 0 0 0 0 0 0 0 0 0 0 0 0 0 0 0 0 0 0 0 0 1 2 2 2 3 3
10 9 7 5 3 3 3 3 3 3 1 1 1 0 0 0 0 0 0 0 0 0 0 0 0 0 0 0 0 0 0 0 0 0 0 0 0 0 1 1 1 2 2
9 8 6 5 4 3 2 3 3 3 2 2 1 0 0 0 0 0 0 0 0 0 0 0 0 0 0 0 0 0 0 0 0 0 0 0 0 0 0 0 0 1 1
8 7 5 4 4 3 2 2 2 2 3 2 1 0 0 0 0 0 0 0 0 0 0 0 0 0 0 0 0 0 0 0 0 0 0 0 0 0 0 0 0 0 0
7 6 4 3 3 2 1 1 1 2 2 1 1 0 0 0 0 0 0 0 0 0 0 0 0 0 0 0 0 0 0 0 0 0 0 0 0 0 0 0 0 0 0
7 6 4 3 2 1 0 0 0 1 1 0 0 0 0 0 0 0 0 0 0 0 0 0 0 0 0 0 0 0 0 0 0 0 0 0 0 0 0 0 0 0 0

GEFSGL_con_prob3kmehi_366.txt.gz
EHI
8 8 8 10 12 13 11 7 5 3 2 1 1 1 1 0 0 1 1 2 2 1 0 0 0 1 3 4 4 4 4 4 4 3 1 0 0 0 0 0 0 0 0
9 9 9 9 11 12 11 8 5 3 2 2 3 3 1 0 0 1 1 1 1 0 0 0 0 1 3 4 5 5 5 5 5 4 2 1 0 0 0 0 0 0 0
9 9 8 7 8 10 10 9 6 4 3 4 5 5 3 1 0 0 0 0 1 1 0 0 0 1 2 4 4 4 6 7 8 7 4 1 0 0 0 0 0 0 0
7 7 6 5 4 6 9 9 6 4 3 4 5 6 5 3 1 1 1 1 1 1 0 0 0 1 2 2 2 3 5 8 9 9 6 3 1 0 0 0 0 0 0
7 7 6 5 4 4 6 6 5 3 2 3 4 5 4 3 2 2 2 2 2 2 1 1 1 2 1 1 1 2 4 6 8 8 6 4 1 0 0 0 0 0 0
9 8 7 6 4 3 4 4 3 2 1 1 1 2 2 2 2 1 2 3 4 4 3 3 3 2 1 0 0 1 1 3 5 6 6 4 2 1 0 0 0 0 0
8 7 6 5 4 3 3 3 2 1 0 0 0 0 0 1 1 0 1 3 5 6 6 5 4 3 1 0 0 0 0 1 1 2 4 5 3 2 1 0 0 0 0
7 6 5 5 4 4 4 3 1 1 0 0 1 1 1 0 0 0 0 2 4 6 6 6 5 3 1 0 1 1 1 0 0 0 2 3 4 3 2 1 0 0 0
8 7 6 5 5 6 5 4 2 1 0 1 2 2 1 0 0 0 0 0 2 3 4 4 4 2 0 1 2 2 2 1 1 0 0 1 2 2 2 1 1 0 0
8 7 6 5 6 7 7 5 3 1 1 1 1 1 0 0 0 0 0 0 0 1 1 1 1 0 0 1 2 3 3 3 2 1 1 1 1 2 2 2 2 1 0
8 6 4 4 5 6 8 7 3 1 1 1 1 0 0 0 0 0 0 0 0 0 0 0 0 0 0 0 1 2 2 3 3 3 2 1 1 2 2 2 3 2 1
7 6 4 3 4 5 6 6 3 1 2 1 0 0 0 0 0 0 0 0 0 0 0 0 0 0 0 0 0 1 1 1 2 2 2 1 1 3 3 3 2 2 1
7 6 4 4 4 4 4 4 2 1 1 1 0 0 0 0 0 0 0 0 0 0 0 0 0 0 0 0 0 0 0 0 1 1 1 0 1 2 3 3 1 1 0
5 5 5 5 5 5 4 3 2 2 1 0 0 0 0 0 0 0 0 0 0 0 0 0 0 0 0 0 0 0 0 0 0 0 0 0 0 1 2 2 1 0 0
5 5 5 6 7 7 5 2 2 2 1 0 0 0 0 0 0 0 0 1 0 0 0 0 0 0 0 0 0 0 0 0 0 0 0 0 0 0 1 1 0 0 0
6 4 4 6 8 8 6 3 1 1 0 0 0 0 0 0 0 0 0 0 0 0 0 0 0 0 0 0 0 0 0 0 0 0 0 0 0 0 0 0 0 0 0
5 4 3 5 7 8 7 4 2 1 0 0 0 0 0 0 0 0 0 0 0 0 0 1 1 1 1 0 0 0 0 0 0 0 0 0 0 0 0 0 0 0 0
4 3 3 4 5 6 6 5 3 2 1 0 0 0 0 0 0 0 0 0 0 0 0 1 2 2 2 1 0 0 0 0 0 0 0 0 0 0 0 0 0 0 0
3 3 3 3 4 5 5 4 3 2 1 0 0 0 0 0 0 0 0 0 0 0 0 1 1 2 2 1 0 0 0 0 0 0 0 0 0 0 0 0 0 0 0
1 2 3 3 3 4 4 3 3 3 1 0 0 0 0 0 0 0 0 0 0 0 0 0 0 1 1 0 0 0 0 0 0 0 0 0 0 0 0 0 0 0 0
1 2 3 3 3 3 3 3 3 3 2 1 0 0 0 0 0 0 0 0 0 0 0 0 0 0 0 0 0 0 0 0 0 0 0 0 0 0 0 0 0 0 0
2 2 2 3 3 3 3 3 3 3 3 2 1 1 0 0 0 0 0 0 0 0 0 0 0 0 0 0 0 0 0 0 0 0 0 0 0 0 0 0 0 0 0
1 1 1 2 3 3 3 3 3 4 4 3 2 1 0 0 0 0 0 0 0 0 0 0 0 0 0 0 0 0 0 0 0 0 0 0 0 0 0 0 0 0 0
1 1 1 2 3 4 4 4 4 5 5 4 2 1 0 0 0 0 0 0 0 0 0 0 0 0 0 0 0 0 0 0 0 0 0 0 0 0 0 0 0 0 0
2 3 3 3 5 6 6 5 5 6 5 3 1 0 0 0 0 0 0 0 0 0 0 0 0 0 0 0 0 0 0 0 0 0 0 0 0 0 0 0 0 0 0
3 4 5 5 6 7 6 6 6 6 4 2 0 0 0 0 0 0 0 0 0 0 0 0 0 0 0 0 0 0 0 0 0 0 0 0 0 0 0 0 0 0 0

GEFSGL_con_prob3kmehi_372.txt.gz
EHI
16 15 14 13 13 15 15 15 18 21 20 18 17 17 18 16 13 12 13 11 9 9 9 9 9 9 9 10 11 12 13 11 9 9 11 13 12 10 8 6 4 3 4
14 14 14 13 14 15 15 16 19 21 20 20 20 19 18 15 13 12 11 10 9 9 9 8 8 8 9 10 10 10 11 11 10 10 11 12 12 10 9 7 3 2 3
10 11 14 14 14 15 17 18 19 20 20 22 23 21 18 16 14 12 11 9 8 8 7 7 7 7 8 8 7 7 8 10 12 12 11 10 10 9 9 7 4 2 2
10 11 13 13 14 16 19 20 19 19 20 22 23 22 20 18 16 14 12 11 10 8 7 6 7 7 7 6 5 5 7 9 12 13 11 9 8 8 8 6 3 2 1
12 13 13 13 15 18 19 19 19 19 19 20 21 21 19 17 15 13 12 12 12 10 9 8 8 8 7 5 4 4 6 8 11 12 11 9 7 7 7 5 3 1 1
17 16 15 15 17 19 19 18 19 20 19 20 20 19 17 14 10 9 9 10 11 10 10 9 8 7 7 5 4 2 4 6 9 10 9 8 7 6 6 6 4 2 2
20 18 17 17 17 17 17 18 19 20 20 21 21 19 15 11 7 5 6 7 8 9 10 10 8 7 7 7 5 3 4 6 7 8 8 7 6 7 7 7 7 6 5
20 17 15 16 17 18 19 19 19 20 20 20 19 17 13 9 5 2 3 5 6 6 8 9 8 8 8 8 8 7 7 7 6 6 7 6 5 6 7 8 9 8 7
17 17 16 16 17 18 20 20 19 19 18 16 14 12 10 7 3 1 1 4 6 6 6 6 6 5 5 6 7 9 9 8 5 4 4 4 4 4 5 7 8 7 7
15 16 17 16 16 15 17 18 18 16 14 12 10 9 7 5 3 1 1 4 6 6 4 3 2 2 2 3 5 8 8 6 4 4 4 4 4 4 4 5 6 6 6
13 13 14 15 14 13 14 16 16 13 11 10 10 8 7 5 3 1 1 3 5 4 2 1 1 1 0 1 3 5 4 3 4 5 5 5 5 5 4 5 6 6 6
11 10 10 12 14 13 13 15 15 11 10 10 10 9 8 7 5 2 0 1 3 3 2 1 0 0 0 0 1 1 1 1 3 4 4 5 5 4 4 4 4 5 6
11 10 9 10 11 12 12 12 12 11 9 8 9 10 10 8 6 3 1 0 1 3 2 1 0 0 0 0 0 0 0 1 3 3 3 4 4 3 3 3 4 4 4
11 11 10 8 8 10 10 10 10 9 7 7 8 9 9 8 6 4 2 2 2 2 3 2 2 1 1 1 1 1 1 2 3 3 3 3 3 3 3 4 4 4 3
12 12 10 8 7 6 7 8 8 7 6 6 6 7 8 6 4 3 3 3 2 3 4 5 5 4 3 3 2 2 3 3 3 3 3 3 3 3 3 3 4 3 3
13 10 9 7 6 4 4 7 7 5 3 3 3 4 4 3 1 1 1 1 1 2 4 6 7 6 5 4 3 3 3 3 3 3 3 3 3 3 3 3 3 3 4
13 9 6 6 5 4 3 5 7 5 3 2 1 1 1 1 0 0 0 0 0 1 3 6 8 7 5 3 3 3 3 3 3 3 3 3 3 3 2 2 3 4 5
13 9 5 5 5 5 4 4 6 7 6 4 2 1 0 0 0 0 0 0 1 2 5 7 8 8 5 3 3 3 3 3 3 3 3 3 3 1 1 1 1 3 5
9 7 5 4 5 5 5 4 6 7 8 7 5 3 1 1 1 0 0 1 2 4 6 6 7 7 5 3 3 3 3 3 3 3 3 3 3 1 0 0 1 2 3
5 4 3 3 4 5 6 6 6 8 9 9 8 6 4 3 2 2 1 1 3 4 5 4 5 5 4 3 3 3 3 3 3 3 3 3 3 2 1 0 0 1 1
3 1 1 1 2 3 5 6 6 7 8 9 9 7 4 4 5 4 4 3 4 4 4 3 3 4 3 3 3 3 3 3 3 3 3 3 3 2 1 0 0 0 0
1 0 0 1 1 2 3 4 5 6 7 8 9 8 5 5 7 7 6 6 5 4 3 3 3 3 3 3 3 3 3 3 3 3 3 3 2 1 0 0 0 0 0
0 1 1 2 2 2 3 3 4 5 6 8 9 9 7 7 9 9 8 8 7 6 4 4 3 3 3 3 3 3 3 3 3 3 2 1 1 0 0 0 0 0 0
2 3 3 4 3 3 3 3 3 4 7 9 10 10 10 10 10 11 10 9 8 6 5 4 3 3 2 2 2 2 2 2 2 1 1 0 0 0 0 0 0 0 0
5 5 6 5 4 4 4 4 4 6 8 10 11 11 11 11 10 10 10 9 6 5 4 4 3 1 1 1 1 1 1 1 1 0 0 0 0 0 0 0 0 0 0
6 6 6 6 6 5 5 5 6 7 9 11 12 11 11 11 10 10 9 7 5 4 3 3 2 1 0 0 0 0 0 0 0 0 0 0 0 0 0 0 0 0 0

GEFSGL_con_prob3kmehi_378.txt.gz
EHI
33 31 28 28 27 25 25 27 30 31 31 28 24 24 28 32 34 30 25 22 21 20 18 16 15 14 14 13 12 14 16 13 10 8 8 10 12 10 7 5 3 2 1
30 28 26 25 24 23 25 28 29 30 30 28 26 25 29 33 33 29 25 21 19 19 19 19 18 17 15 13 12 12 12 12 10 9 9 10 11 9 7 6 5 2 1
26 25 23 22 21 21 25 28 29 29 30 29 27 27 30 31 30 27 25 22 19 18 19 19 18 17 17 16 14 11 9 9 10 9 9 9 10 9 7 6 6 4 3
25 24 23 22 21 21 25 30 31 30 29 29 28 29 30 29 27 26 25 22 20 20 18 16 15 15 16 16 15 12 10 9 9 8 7 8 9 9 7 6 6 6 5
30 28 28 28 25 26 29 32 33 30 28 28 29 29 29 26 23 23 24 22 22 21 19 15 13 13 13 12 11 11 11 10 8 7 6 7 7 8 7 7 6 6 6
36 36 36 35 34 34 35 36 35 32 28 28 29 28 25 22 17 15 17 21 22 21 18 15 12 11 10 8 7 7 7 8 7 7 6 6 7 7 7 6 6 6 5
38 39 40 40 41 40 40 40 39 35 31 29 28 26 22 17 12 8 10 16 19 18 16 13 11 10 9 7 6 5 5 5 6 6 6 6 6 6 6 5 5 6 6
34 36 40 43 43 43 43 42 41 39 36 31 28 26 23 15 9 5 6 11 15 15 13 12 11 10 9 7 6 6 6 6 6 6 6 6 6 6 5 4 4 5 5
29 32 38 42 42 42 42 42 41 40 38 34 30 27 24 17 10 6 6 9 11 11 11 11 11 11 8 6 4 5 6 6 6 6 6 6 5 5 4 4 4 4 4
27 30 34 37 37 36 39 42 41 38 34 30 27 25 24 20 12 6 6 7 8 8 10 11 10 8 5 3 3 4 6 6 6 6 6 5 4 3 4 4 4 3 3
25 26 28 29 28 28 35 41 40 34 29 25 23 23 24 20 12 6 5 6 6 6 8 9 7 4 2 1 1 2 4 5 5 6 6 5 3 3 3 3 3 3 3
22 23 24 24 22 24 32 37 36 31 26 23 22 22 23 19 11 6 5 4 4 4 5 5 4 2 0 0 0 0 1 2 4 5 6 5 4 3 3 3 3 3 3
22 22 23 23 22 24 28 32 32 29 25 22 21 22 24 21 13 8 5 2 1 2 3 3 1 0 0 0 0 0 0 1 3 4 5 4 3 3 2 2 3 3 3
22 22 22 22 23 24 26 26 26 25 23 22 21 21 21 19 13 8 6 4 3 2 2 2 1 1 1 1 1 1 1 2 4 4 4 3 3 3 2 2 3 4 4
20 20 21 21 21 22 22 20 18 17 17 18 17 16 14 12 9 6 5 5 4 3 3 3 4 5 5 4 3 3 3 3 4 4 4 3 4 5 5 4 5 6 6
18 18 18 18 19 19 17 15 12 9 9 9 9 7 6 5 3 2 2 2 3 3 3 4 7 8 7 7 6 6 4 4 4 4 3 3 4 5 5 5 6 7 7
17 17 15 15 15 14 13 12 11 8 5 4 3 2 2 1 1 0 0 0 1 1 2 5 7 9 9 9 8 7 6 5 4 3 3 3 3 4 4 4 6 8 8
16 15 13 12 12 10 9 9 10 8 5 4 3 1 0 0 0 0 0 0 1 1 3 5 7 8 9 9 8 8 8 7 5 4 3 4 4 4 4 4 6 7 8
15 13 11 11 10 7 6 7 7 6 5 4 3 1 0 0 0 0 0 1 2 3 4 6 7 7 8 8 7 7 8 8 6 4 4 4 5 5 5 5 5 5 5
14 10 8 8 7 6 5 5 5 4 4 4 3 2 1 1 1 1 1 1 3 3 4 5 7 8 8 8 6 6 6 7 6 5 4 4 5 5 5 4 3 3 3
11 8 6 5 5 5 5 5 4 4 4 4 4 3 2 2 4 4 4 3 4 3 3 4 5 7 8 7 5 4 5 6 6 6 5 4 4 4 4 3 3 3 2
7 6 6 5 4 5 6 6 4 3 4 4 5 4 3 3 5 6 6 6 6 5 5 6 6 7 7 7 6 4 4 5 6 6 6 5 4 3 3 3 3 2 1
4 5 7 6 6 6 7 7 6 4 3 4 5 5 4 4 5 7 8 9 9 8 8 8 8 8 7 7 7 6 4 4 5 6 6 6 4 3 3 3 2 2 1
3 4 6 7 6 6 6 6 5 4 3 3 4 6 6 6 6 7 8 10 11 10 10 9 9 8 7 7 7 6 5 4 4 4 5 5 4 3 2 1 1 1 0
3 4 4 5 6 6 5 5 4 4 3 2 4 6 7 8 7 7 9 11 12 11 10 9 8 7 7 6 6 5 3 3 2 3 4 4 3 2 1 0 0 0 0
3 3 3 3 4 6 5 4 5 5 3 3 4 6 7 8 7 7 10 12 12 11 9 8 8 7 6 6 4 2 1 1 1 2 3 3 2 1 0 0 0 0 0

GEFSGL_con_prob3kmehi_384.txt.gz
EHI
12 13 14 14 12 10 8 8 10 11 11 12 13 12 12 12 11 10 8 8 8 7 5 5 5 5 4 3 2 1 0 0 0 1 2 2 2 2 1 0 0 0 0
15 16 16 14 11 10 9 8 9 11 12 13 13 13 14 14 13 12 10 11 11 9 7 6 6 6 5 3 1 0 0 0 0 1 2 2 2 2 1 0 0 0 0
18 18 17 14 11 9 8 8 8 11 12 13 14 14 15 16 15 13 13 14 14 13 10 9 7 6 5 3 1 0 0 0 0 0 1 2 1 1 1 0 0 0 0
19 18 17 14 10 6 6 7 8 10 11 13 13 14 14 14 13 13 13 14 14 12 11 10 8 6 4 3 2 2 2 1 0 0 1 1 1 1 1 0 0 0 0
19 17 14 11 8 6 6 7 9 10 10 11 12 11 12 12 11 11 11 11 11 10 9 8 7 5 4 3 2 3 3 3 1 0 0 1 0 0 0 0 0 0 0
16 13 10 7 7 8 8 11 12 11 11 12 11 9 9 9 9 9 9 9 8 7 6 5 5 4 3 3 2 2 3 3 2 1 1 2 1 0 0 0 0 0 0
12 9 7 7 8 9 10 12 12 12 13 13 11 8 7 7 6 6 6 6 6 5 4 4 4 4 4 4 3 2 2 3 2 2 3 3 2 1 0 0 0 0 0
9 8 7 8 9 9 10 9 8 9 11 12 10 8 7 5 4 2 3 4 5 5 4 4 5 5 5 5 5 3 2 2 2 2 3 3 3 1 0 0 0 0 0
9 8 7 8 8 9 10 9 7 7 9 10 9 7 6 4 2 1 1 4 6 6 5 4 4 5 5 5 5 3 1 1 1 1 2 3 3 2 0 0 0 0 0
7 7 7 7 7 8 10 11 9 8 8 9 7 6 4 3 2 0 1 4 6 5 4 4 4 4 4 4 4 3 1 1 1 2 2 3 3 2 0 0 0 0 0
5 5 6 7 7 8 10 11 11 10 9 9 7 5 3 2 1 0 1 2 4 5 4 4 4 3 2 2 2 2 2 1 1 2 2 3 3 2 1 0 0 0 0
5 5 6 7 8 9 11 11 12 12 12 11 8 6 3 2 1 0 0 1 2 4 5 5 4 2 1 1 1 1 1 1 0 1 1 2 3 3 2 1 0 0 0
5 5 6 6 7 9 11 11 11 12 13 12 10 8 6 3 2 1 1 0 1 2 3 3 2 0 0 0 0 0 0 0 0 0 0 1 2 3 3 1 0 0 0
5 5 5 5 6 7 8 9 8 9 10 9 10 9 7 5 3 2 1 1 1 1 1 1 0 0 0 0 0 0 0 0 0 0 0 0 1 3 3 2 1 0 0
5 4 4 4 4 4 4 4 4 4 5 5 6 6 5 4 2 1 1 1 1 0 0 0 0 0 0 0 0 0 0 0 0 0 0 0 1 2 3 2 1 0 0
5 5 4 3 3 1 1 0 1 1 1 1 2 2 2 1 1 0 0 1 1 0 0 0 0 0 0 0 0 0 0 0 0 0 0 0 0 1 2 1 0 0 0
6 5 4 4 3 1 0 0 0 0 0 0 0 0 0 0 0 0 0 0 0 0 0 0 0 0 0 0 0 0 0 0 0 0 0 0 0 0 0 0 0 0 0
6 6 5 5 5 3 1 0 0 0 0 0 0 0 0 0 0 0 0 0 0 0 0 0 0 0 0 0 0 0 0 0 0 0 0 0 0 0 0 0 0 0 0
6 6 6 6 6 4 1 0 0 0 0 0 0 0 0 0 0 0 0 0 0 0 0 0 0 0 0 0 0 0 0 0 1 1 1 1 1 1 1 1 1 1 0
6 6 6 6 6 3 1 0 0 0 0 0 0 0 0 0 0 0 0 0 0 0 0 0 0 0 0 0 0 0 0 0 1 2 2 2 2 2 2 2 2 2 1
6 6 6 6 4 2 0 0 0 0 0 0 0 0 0 0 0 0 0 0 0 0 0 0 0 0 0 0 0 0 0 0 2 3 3 3 3 3 3 3 3 3 3
7 7 6 5 2 1 0 0 0 0 0 0 0 0 0 0 0 0 0 0 0 0 0 0 0 0 0 0 1 1 1 1 2 3 3 3 3 3 3 3 3 3 3
9 8 6 4 2 1 1 1 1 0 0 0 0 0 0 1 1 1 1 1 1 1 1 0 0 0 0 1 2 2 2 3 3 3 3 3 3 3 3 3 3 3 3
11 9 7 4 3 2 2 2 1 0 0 0 0 1 1 2 2 2 2 2 2 2 1 0 0 0 0 1 2 2 2 2 3 3 3 3 3 3 3 3 3 3 3
10 9 7 5 3 2 1 1 1 0 0 0 1 2 2 2 2 2 1 1 1 1 1 0 0 0 0 0 1 1 1 1 1 2 2 3 3 3 3 3 3 3 3
8 9 7 5 3 1 0 0 0 0 0 0 1 2 3 2 1 1 0 0 0 0 0 0 0 0 0 0 0 0 0 0 0 1 1 2 3 3 3 3 3 3 3